Weather History for KLWA - February, 2013

Change the Weather History Date:

Thursday, February 7, 2013

  Actual Average (KBIV) Record (KBIV)
Temperature  
Mean Temperature 30 °F 27 °F  
Max Temperature 33 °F 33 °F - ()
Min Temperature 28 °F 20 °F - ()
Degree Days  
Heating Degree Days 34 38  
Month to date heating degree days 271  
Since 1 July heating degree days 3745  
Cooling Degree Days 0 0  
Month to date cooling degree days 0  
Year to date cooling degree days 0  
Moisture  
Dew Point 27 °F    
Average Humidity 87    
Maximum Humidity 99    
Minimum Humidity 72    
Precipitation  
Precipitation 0.00 in 0.06 in - ()
Month to date precipitation 0.35  
Year to date precipitation 2.44  
Sea Level Pressure  
Sea Level Pressure 30.01 in    
Wind  
Wind Speed 5 mph (ESE)    
Max Wind Speed 10 mph    
Max Gust Speed -    
Visibility 4 miles    
Events Rain , Snow    
T = Trace of Precipitation, MM = Missing Value Source: NWS Daily Summary

Daily Weather History Graph

Daily Weather History Graph

Search for Another Location

Airport or City:

Trip Planner

Search our weather history database for the weather conditions in past years. The results will help you decide how hot, cold, wet, or windy it might be!

Date:

Astronomy

Feb. 07, 2013 Rise Set
Actual Time 7:51 AM EST 6:07 PM EST
Civil Twilight 7:22 AM EST 6:36 PM EST
Nautical Twilight 6:49 AM EST 7:09 PM EST
Astronomical Twilight 6:16 AM EST 7:42 PM EST
Moon 5:32 AM EST (2/7) 3:29 PM EST (2/7)
Length of Visible Light 11h 14m
Length of Day
10h 15m
Waning Crescent, 9% of the Moon is Illuminated
Feb 7
Waning Crescent
Feb 10
New
Feb 17
First Quarter
Feb 25
Full
Mar 4
Last Quarter

Hourly Weather History & Observations

Time (EST) Temp. Windchill Dew Point Humidity Pressure Visibility Wind Dir Wind Speed Gust Speed Precip Events Conditions
12:15 AM 30.0 °F 24.1 °F 22.6 °F 74% 30.15 in 7.0 mi ESE 5.8 mph - N/A   Overcast
12:35 AM 30.0 °F 26.5 °F 22.6 °F 74% 30.17 in 7.0 mi SE 3.5 mph - N/A   Overcast
12:55 AM 29.8 °F 26.3 °F 22.6 °F 75% 30.17 in 7.0 mi SE 3.5 mph - N/A   Overcast
1:15 AM 30.0 °F 25.2 °F 22.6 °F 74% 30.17 in 7.0 mi SE 4.6 mph - N/A   Overcast
1:34 AM 30.2 °F - 22.6 °F 73% 30.18 in 10.0 mi Calm Calm - N/A   Overcast
1:55 AM 29.8 °F 24.9 °F 23.0 °F 76% 30.17 in 10.0 mi SE 4.6 mph - N/A   Overcast
2:15 AM 30.6 °F 24.7 °F 22.6 °F 72% 30.17 in 10.0 mi SSE 5.8 mph - N/A   Overcast
2:35 AM 30.2 °F 23.4 °F 22.5 °F 73% 30.16 in 10.0 mi ESE 6.9 mph - N/A   Overcast
2:55 AM 29.7 °F 22.8 °F 22.5 °F 75% 30.15 in 10.0 mi SE 6.9 mph - N/A   Overcast
3:15 AM 29.3 °F 22.3 °F 22.3 °F 75% 30.14 in 10.0 mi SE 6.9 mph - N/A   Overcast
3:35 AM 29.3 °F 24.3 °F 22.6 °F 76% 30.14 in 10.0 mi ESE 4.6 mph - N/A   Overcast
3:54 AM 29.3 °F 24.3 °F 22.5 °F 76% 30.14 in 10.0 mi ESE 4.6 mph - N/A   Mostly Cloudy
4:15 AM 28.9 °F 21.9 °F 22.5 °F 77% 30.13 in 7.0 mi SE 6.9 mph - N/A   Scattered Clouds
4:35 AM 28.9 °F 22.8 °F 22.1 °F 76% 30.14 in 10.0 mi SE 5.8 mph - N/A   Scattered Clouds
4:55 AM 28.4 °F 23.3 °F 22.5 °F 78% 30.14 in 7.0 mi ESE 4.6 mph - N/A   Scattered Clouds
5:15 AM 28.4 °F 24.6 °F 22.5 °F 78% 30.14 in 7.0 mi SE 3.5 mph - N/A   Scattered Clouds
5:34 AM 28.9 °F 22.8 °F 22.5 °F 77% 30.14 in 7.0 mi SE 5.8 mph - N/A   Overcast
5:55 AM 28.9 °F 20.4 °F 22.6 °F 77% 30.12 in 7.0 mi SE 9.2 mph - N/A   Overcast
6:15 AM 28.8 °F 21.7 °F 22.5 °F 77% 30.11 in 7.0 mi SE 6.9 mph - N/A   Overcast
6:35 AM 28.9 °F 22.8 °F 22.8 °F 78% 30.11 in 7.0 mi SSE 5.8 mph - N/A   Mostly Cloudy
6:55 AM 29.3 °F 23.2 °F 23.0 °F 77% 30.12 in 7.0 mi SE 5.8 mph - N/A   Mostly Cloudy
7:15 AM 29.3 °F 21.5 °F 23.2 °F 78% 30.11 in 7.0 mi SE 8.1 mph - N/A   Mostly Cloudy
7:34 AM 29.3 °F 22.3 °F 23.4 °F 78% 30.12 in 7.0 mi SSE 6.9 mph - N/A   Overcast
7:55 AM 29.3 °F 21.5 °F 23.5 °F 79% 30.11 in 5.0 mi SE 8.1 mph - N/A   Haze
8:15 AM 29.3 °F 22.3 °F 23.5 °F 79% 30.12 in 5.0 mi SSE 6.9 mph - N/A   Haze
8:35 AM 29.3 °F 23.2 °F 23.7 °F 80% 30.11 in 5.0 mi SE 5.8 mph - N/A   Haze
8:55 AM 29.7 °F - 23.9 °F 79% 30.11 in 4.0 mi Calm Calm - N/A   Haze
9:15 AM 29.7 °F 20.7 °F 24.3 °F 80% 30.10 in 2.0 mi SE 10.4 mph - N/A Snow Light Snow
9:35 AM 29.3 °F 22.3 °F 25.7 °F 86% 30.10 in 1.5 mi SE 6.9 mph - N/A Snow Light Snow
9:54 AM 29.3 °F 21.5 °F 26.2 °F 88% 30.09 in 1.5 mi SE 8.1 mph - N/A Snow Light Snow
10:15 AM 29.7 °F 21.3 °F 27.1 °F 90% 30.07 in 2.0 mi ESE 9.2 mph - N/A Snow Light Snow
10:35 AM 30.0 °F 22.4 °F 27.5 °F 90% 30.06 in 2.0 mi ESE 8.1 mph - N/A Rain Light Freezing Rain
10:55 AM 30.6 °F 23.8 °F 27.9 °F 90% 30.06 in 1.8 mi ESE 6.9 mph - N/A   Overcast
11:15 AM 30.9 °F 25.2 °F 27.9 °F 88% 30.05 in 2.0 mi SE 5.8 mph - N/A Rain Light Freezing Rain
11:33 AM 31.1 °F 24.5 °F 28.4 °F 90% 30.06 in 2.0 mi SE 6.9 mph - N/A Rain Light Freezing Rain
11:54 AM 31.6 °F 27.0 °F 28.9 °F 90% 30.05 in 2.0 mi SE 4.6 mph - N/A Rain Light Freezing Rain
12:15 PM 32.0 °F 26.4 °F 29.8 °F 92% 30.04 in 1.8 mi SE 5.8 mph - N/A Snow Snow
12:34 PM 32.0 °F 28.7 °F 30.2 °F 93% 30.03 in 1.2 mi SE 3.5 mph - N/A Snow Light Snow
12:55 PM 32.0 °F 26.4 °F 30.6 °F 94% 30.02 in 1.2 mi ESE 5.8 mph - N/A   Overcast
1:15 PM 32.0 °F 26.4 °F 30.6 °F 94% 30.01 in 1.8 mi East 5.8 mph - N/A Snow Light Snow
1:33 PM 32.0 °F 26.4 °F 30.6 °F 94% 30.00 in 2.0 mi East 5.8 mph - N/A   Overcast
1:54 PM 32.0 °F 27.5 °F 30.2 °F 93% 29.98 in 2.5 mi East 4.6 mph - N/A   Overcast
2:13 PM 32.0 °F 26.4 °F 30.2 °F 93% 29.97 in 3.0 mi East 5.8 mph - N/A   Overcast
2:34 PM 32.2 °F 25.8 °F 29.8 °F 91% 29.96 in 4.0 mi East 6.9 mph - N/A   Overcast
2:55 PM 32.4 °F 26.9 °F 30.2 °F 92% 29.94 in 3.0 mi East 5.8 mph - N/A   Overcast
3:13 PM 32.5 °F 29.3 °F 30.7 °F 93% 29.94 in 3.0 mi East 3.5 mph - N/A   Overcast
3:35 PM 32.7 °F 28.3 °F 30.7 °F 92% 29.93 in 3.0 mi ENE 4.6 mph - N/A   Overcast
3:55 PM 32.9 °F 28.5 °F 31.1 °F 93% 29.92 in 3.0 mi East 4.6 mph - N/A   Overcast
4:14 PM 33.1 °F 28.7 °F 30.9 °F 92% 29.92 in 3.0 mi East 4.6 mph - N/A   Overcast
4:35 PM 33.1 °F 27.7 °F 30.9 °F 92% 29.90 in 3.0 mi East 5.8 mph - N/A   Overcast
4:55 PM 33.3 °F 27.1 °F 31.1 °F 92% 29.88 in 3.0 mi East 6.9 mph - N/A   Overcast
5:14 PM 33.4 °F 27.3 °F 30.9 °F 90% 29.88 in 4.0 mi East 6.9 mph - N/A   Overcast
5:34 PM 33.4 °F 27.3 °F 31.1 °F 91% 29.88 in 4.0 mi East 6.9 mph - N/A   Overcast
5:55 PM 33.4 °F 30.4 °F 30.9 °F 90% 29.86 in 4.0 mi ENE 3.5 mph - N/A   Overcast
6:15 PM 33.8 °F 29.6 °F 30.7 °F 89% 29.86 in 5.0 mi NNE 4.6 mph - N/A   Overcast
6:34 PM 33.4 °F - 30.6 °F 89% 29.87 in 5.0 mi Calm Calm - N/A   Overcast
6:55 PM 33.3 °F - 30.7 °F 90% 29.87 in 5.0 mi Calm Calm - N/A   Overcast
7:15 PM 33.8 °F - 30.2 °F 87% 29.88 in 5.0 mi Calm Calm - N/A Rain Light Rain
7:35 PM 33.3 °F - 30.9 °F 91% 29.88 in 1.8 mi Calm Calm - N/A Snow Light Snow
7:55 PM 32.4 °F - 31.6 °F 97% 29.88 in 0.8 mi Calm Calm - N/A Snow Snow
8:15 PM 32.2 °F 26.7 °F 31.8 °F 99% 29.86 in 0.8 mi East 5.8 mph - N/A Snow Snow
8:34 PM 32.4 °F 29.1 °F 32.0 °F 99% 29.86 in 1.0 mi East 3.5 mph - N/A Snow Light Snow
8:55 PM 32.4 °F 27.9 °F 32.0 °F 99% 29.86 in 1.0 mi East 4.6 mph - N/A Snow Light Snow
9:14 PM 32.4 °F - 32.0 °F 99% 29.86 in 1.2 mi Calm Calm - N/A Snow Light Snow
9:34 PM 32.4 °F 29.1 °F 32.0 °F 99% 29.85 in 1.0 mi ENE 3.5 mph - N/A Snow Light Snow
9:55 PM 32.4 °F 29.1 °F 32.0 °F 99% 29.85 in 1.2 mi ENE 3.5 mph - N/A Snow Light Snow
10:15 PM 32.4 °F 29.1 °F 32.0 °F 99% 29.84 in 1.2 mi ENE 3.5 mph - N/A Snow Light Snow
10:35 PM 32.4 °F - 32.0 °F 99% 29.84 in 1.5 mi Calm Calm - N/A Snow Light Snow
10:55 PM 32.4 °F 29.1 °F 32.0 °F 99% 29.83 in 1.5 mi NE 3.5 mph - N/A Snow Light Snow
11:14 PM 32.4 °F 29.1 °F 32.0 °F 99% 29.83 in 2.0 mi NE 3.5 mph - N/A Snow Light Snow
11:35 PM 32.4 °F 29.1 °F 32.0 °F 99% 29.83 in 2.0 mi NE 3.5 mph - N/A Snow Light Snow
11:54 PM 32.4 °F 29.1 °F 32.0 °F 99% 29.83 in 2.0 mi North 3.5 mph - N/A Snow Light Snow